Flag for Norway Weather past 2 weeks in Horten, Norway

Now
54 °F

Sunny.


Feels Like: 47 °F
Forecast: 38 / 56 °F
Wind: 32 mph from Southeast

Location: Oseberg


UV Index: 0 (Low)

Visibility: 10 mi


Pressure: 30.21 "Hg

Humidity: 63%

Dew point: 41 °F

Location of HortenLocation

Historic Weather in Horten

°F

Horten temperature yesterday

Maximum temperature yesterday: 54 °F (at 11:50 PM)
Minimum temperature yesterday: 46 °F (at 2:50 AM)
Average temperature yesterday: 49 °F

Past Weeks' High & Low Weather Summary

 TemperatureHumidityPressure
High59 °F (Apr 23, 3:50 AM)100% (Apr 9, 8:50 PM)30.36 "Hg (Apr 9, 8:50 PM)
Low37 °F (Apr 13, 11:50 PM)42% (Apr 23, 3:50 AM)29.24 "Hg (Apr 12, 8:50 PM)
Average45 °F81%29.90 "Hg
* Reported Apr 8 12:20 PM — Apr 23 12:50 PM, Horten, Weather by CustomWeather, © 2014

Note: Actual official high and low records may vary slightly from our data, if they occured in-between our weather recording intervals... More about our weather records

Advertising

Historic Weather Conditions — Data for Previous 24 hours

 ConditionsComfort  
Time TempWeatherWind HumidityBarometerVisibility
12:50 PM
Apr 23
54 °FBroken clouds.22 mph63%30.21 "HgN/A
12:20 PM54 °FLight rain. Broken clouds.26 mph63%30.18 "HgN/A
11:50 AM54 °FSunny.25 mph63%30.18 "Hg10 mi
11:20 AM55 °FSunny.28 mph55%30.18 "Hg10 mi
10:50 AM55 °FSunny.35 mph55%30.18 "Hg10 mi
10:20 AM54 °FSunny.35 mph58%30.15 "Hg10 mi
9:50 AM54 °FSunny.36 mph54%30.15 "Hg10 mi
9:20 AM55 °FSunny.35 mph51%30.12 "Hg10 mi
8:50 AM55 °FPartly sunny.33 mph55%30.12 "HgN/A
7:50 AM55 °FPartly sunny.36 mph55%30.12 "HgN/A
7:20 AM55 °FBroken clouds.31 mph55%30.12 "HgN/A
6:50 AM55 °FPartly sunny.33 mph51%30.12 "HgN/A
6:20 AM57 °FPassing clouds.30 mph48%30.12 "HgN/A
5:50 AM55 °FPassing clouds.31 mph51%30.12 "HgN/A
4:50 AM59 °FSprinkles. Passing clouds.22 mph45%30.12 "HgN/A
3:50 AM59 °FPassing clouds.21 mph42%30.12 "HgN/A
2:50 AM57 °FPassing clouds.17 mph48%30.12 "HgN/A
1:50 AM55 °FPassing clouds.16 mph51%30.12 "HgN/A
12:50 AM55 °FPassing clouds.16 mph44%30.12 "HgN/A
11:50 PM
Apr 22
54 °FPassing clouds.16 mph58%30.12 "HgN/A
10:50 PM48 °FClear.17 mph82%30.12 "Hg10 mi
9:50 PM50 °FPassing clouds.17 mph76%30.12 "HgN/A
8:50 PM50 °FScattered clouds.20 mph76%30.12 "HgN/A
7:50 PM50 °FPassing clouds.20 mph71%30.09 "HgN/A
6:50 PM50 °FSunny.24 mph71%30.09 "Hg10 mi
6:20 PM50 °FSunny.25 mph76%30.09 "Hg10 mi
5:50 PM50 °FSunny.26 mph76%30.09 "Hg10 mi
5:20 PM50 °FSunny.26 mph76%30.09 "Hg10 mi
4:50 PM50 °FSunny.26 mph76%30.09 "Hg10 mi
4:20 PM50 °FSunny.25 mph76%30.12 "Hg10 mi
3:50 PM50 °FSunny.25 mph76%30.12 "Hg10 mi
3:20 PM52 °FSunny.23 mph67%30.12 "Hg10 mi
Weather by CustomWeather, © 2014

See weather overview